◎アポロ型特異小惑星  1992 UY4   (from YC 2480)

  天文年鑑2005(p.232)で紹介したとおり,この小惑星は,2005年8月9日頃

に地球に0.040 AUまで接近する.このとき,小惑星の光度は12等級まで明るくな

り,ほぼ,衝位置を日々運動8o.5ほどの高速で空を移動する.すでに,7月中旬

の位置観測によれば,小惑星は,その頃,13等〜14等級まで明るくなった.なお,

先ほど届いた雄踏の和久田俊一氏(S. Wakuda, Yuto)による7月27日の観測で

は,この小惑星は12.3等まで明るくなっている.

  OAA小惑星課では,1992年から2005年7月18日までに行なわれた105個の観測か

ら次の軌道を計算した.加重平均残差は0".42.なお,下の位置予報は,地心か

らのもの.

               。

       Mo= 356.7635                Epoch = 2005 Aug. 18.0 TT

       ω =  38.2243                   e =   0.625286          H = 17.6

       Ω = 308.5003    (2000.0)       a =   2.641577 AU       G =  0.15

       i =   2.8082                   n゚=   0.2295668

       q =   0.989837 AU              P =   4.29 年



2005/        α  (2000) δ      △      r       日々運動   Elong.  Phase   V  

  0h TT     h  m       。  ,        AU      AU      ,  PA 。     。      。      等

July 29   20 41.64  -20 05.3    0.076   1.091   159.2/ 60   177.6    2.2   12.5

     31   21 02.48  -17 11.3    0.066   1.081   214.0/ 59   174.8    4.9   12.3

Aug.  2   21 29.55  -13 04.2    0.056   1.070   290.2/ 57   169.1   10.3   12.2

      4   22 04.78  -07 14.0    0.048   1.060   386.6/ 55   160.5   18.6   12.1

      6   22 49.76  +00 39.5    0.043   1.051   479.4/ 55   148.7   30.1   12.2

      8   23 44.07  +10 03.9    0.040   1.042   515.9/ 56   134.1   44.3   12.4

     10   00 43.35  +19 08.2    0.041   1.034   467.5/ 60   119.0   59.0   12.9

     12   01 40.29  +26 01.2    0.046   1.027   372.2/ 65   106.0   71.5   13.5

     14   02 29.15  +30 21.2    0.052   1.020   279.5/ 71    96.3   80.8   14.1

     16   03 08.24  +32 48.4    0.061   1.014   208.2/ 76    89.5   87.1   14.6

     18   03 38.68  +34 07.4    0.070   1.008   157.7/ 80    84.8   91.2   15.1 



1992 UY4                                                                    

Epoch 2005 Aug. 18.0 TT = JDT 2453600.5                 MPC      

M 356.76346              (2000.0)            P               Q

n   0.22956679     Peri.   38.22436     +0.97269594     +0.22889394

a   2.6415774      Node   308.50021     -0.22316632     +0.87711565

e   0.6252857      Incl.    2.80826     -0.06371345     +0.42222707

P   4.29           H   17.6           G   0.15           U   0

Residuals in seconds of arc 

920721 413  0.5-  1.1-    960516 695  1.3+  0.0     050714 620  0.0   0.0   

920728 413  0.4-  0.0     011217 644  0.4-  0.6+    050715 620  0.1+  0.0   

921025 675 (2.3+  1.4-)   050512 F65  0.3+  0.3+    050715 620  0.0   0.0   

921025 675  1.2+  1.3-    050512 F65  0.6+  0.1+    050717 E12  0.0   0.3+  

921026 675  0.8+  0.2+    050512 F65  0.7+  0.1-    050717 E12  0.1-  0.1+  

921026 675  1.0+  1.4-    050512 F65  0.2+  0.5-    050717 E12  0.0   0.1-  

921117 402  1.2-  0.8-    050513 F65  0.2+  0.4+    050717 E12  0.3-  0.1-  

921117 402  1.1+  0.1+    050513 F65  0.3+  0.1+    050718 E17  0.0   0.2-  

921118 402  1.5-  1.5-    050609 H06  1.3+  1.0+    050718 E17  0.2-  0.3-  

921118 402  0.9+  1.0+    050609 H06  0.4+  1.0-    050718 E17  0.2-  0.2-  

921123 372 (3.4-  2.9-)   050611 704  0.3-  0.1-    050718 428  0.1-  0.2-  

921123 372  1.4-  1.8+    050611 704  1.5-  0.1-    050718 428  0.1-  0.2-  

921125 675  0.5-  0.1-    050611 704  0.1+  0.7-    050718 428  0.3+  0.3-  

921125 372 (3.3-  0.2-)   050611 704  0.2+  0.9-    050718 428  0.2+  0.3-  

921125 372 (3.5-  1.0+)   050611 704  0.5-  0.2+    050724 H45  0.1-  0.0   

921126 675  0.7+  0.2-    050627 644  1.1+  0.0     050724 H45  0.1-  0.2+  

921126 675  0.3+  0.5+    050627 644  0.3-  0.1+    050724 H45  0.1+  0.1+  

921127 675  0.1-  0.3-    050627 644  0.1-  0.0     050724 H45  0.1-  0.4+  

921128 675  0.6-  0.0     050703 644  0.0   0.2+    050724 H45  0.1-  0.1+  

921128 367  0.2+  0.4+    050703 644  0.1+  0.1+    050724 H45  0.1+  0.2+  

921128 367  1.1+  1.2+    050703 644  0.1+  0.2+    050726 151  0.0   0.1+  

921129 900  0.6-  0.2-    050710 E12  0.2-  0.4+    050726 151  0.1-  0.2+  

921129 376  0.8+  0.0     050710 E12  0.0   0.1-    050726 151  0.1+  0.1-  

921129 376  0.0   0.8+    050710 E12  0.1-  0.0     050726 151  0.2-  0.5+  

921129 900  1.1-  0.2+    050710 E12  0.1-  0.0     050726 151  0.1-  0.4+  

921130 675  0.1+  0.2+    050712 620  0.1-  0.1-    050726 151  0.0   0.0   

921130 367  0.6+  0.3-    050712 620  0.1-  0.1-    050726 151  0.1+  0.3+  

921130 367 (3.2+  0.5+)   050713 620  0.1+  0.0     050726 151  0.1-  0.0   

921201 658  1.3-  0.0     050713 620  0.0   0.0     050726 151  0.0   0.3+  

921201 658  1.1-  0.3+    050713 620  0.0   0.1-    050726 151  0.0   0.2+  

921201 658  0.5-  0.7+    050713 I77  0.0   0.1-    050727 379  0.2-  0.3-  

921202 658  0.7-  0.5+    050713 I77  0.6-  0.3-    050727 379  0.2+  0.0   

921202 658  0.7-  0.0     050713 I77  0.0   0.1-    050727 379  0.2+  0.3+  

921202 658  1.2-  0.3+    050713 428  0.4-  0.2-    050727 379  0.0   0.1+  

921203 658  0.2-  0.1-    050713 428  0.3-  0.0     050727 379  0.3-  0.3-  

921203 658  0.2-  0.1-    050713 620  0.0   0.0     050727 379  0.3-  0.1-  

921203 658  0.2-  0.1-    050713 620  0.0   0.1-    050727 379  0.1+  0.0   

921203 372  0.6+  1.9-    050714 620  0.1+  0.1+    050727 379  0.1+  0.1+  

921203 372  0.4+  1.7-    050714 620  0.1-  0.0     050729 H45  0.0   0.2+  

921204 376  1.0+  1.3-    050714 620  0.1+  0.0     050729 H45  0.2-  0.0   

921204 376  0.3+  0.8+    050714 379  0.9+  0.1-    050729 H45  0.0   0.2+  

921223 801  0.5+  0.4+    050714 379  0.2+  0.3-    050729 H45  0.1-  0.0   

921223 801  0.2+  0.3+    050714 157  0.1-  0.3+    050729 H45  0.0   0.1+  

960515 695  0.3-  0.6+    050714 157  0.0   0.4+    050729 H45  0.2-  0.1+  

960515 695  0.6-  0.3+    050714 157  0.1+  0.5-    050729 H45  0.2-  0.0   

960515 695  0.8-  0.2+    050714 157  0.1-  0.1+    050729 H45  0.0   0.2+  

960516 695  0.2-  0.9-    050714 620  0.0   0.0                             

960516 695  1.5+  0.1+    050714 620  0.2+  0.0                             

  

NAKANO

         **** Don't distribute anyone except personal use only ****

                (C) Copyright 2005 OAA/ComputingSection

write mail from CFAD0::NAKANO on 2005-07-30 01:15:18(JST).

 

戻ります。